User: anonymous   Login
Location: ??
(35.5052°N, 139.7262°E)
Time: 17:04:37
(UTC+00:00)
Language:

Cosmos 2237 Rocket - Orbit

View from above orbital plane
View from above orbital plane
View from above satellite
View from above satellite

Ground track
Ground track

The orbit data is extracted from the following two-line orbital elements,

1 22566U 93016B   21269.05908694 -.00000201  00000-0 -79390-4 0  9998
2 22566  71.0105  28.3911 0012853 276.6401  83.3259 14.14978798472209
Epoch (UTC): 26 September 2021 01:25:05
Eccentricity: 0.0012853
inclination: 71.0105°
perigee height: 833 km
apogee height: 851 km
right ascension of ascending node: 28.3911°
argument of perigee: 276.6401°
revolutions per day: 14.14978798
mean anomaly at epoch: 83.3259°
orbit number at epoch: 47220

The dashed part of the orbit path shows where the satellite is in the earth's shadow,  

DLR